Torna al catalogo

KOYOH

AttivoScienzaSSO
NORAD 58464·PAYLOAD·🇯🇵 Japan

Lanciato Dec 1, 2023 da Vandenberg Space Force Base

Loading…

Prossimi Passaggi (prossime 24 ore)

TLE

AggiornatoSource: Space-Track

Epoca: Sep 14, 2026, 12:16 UTC

1 58464U 23185C   26257.51155412  .00004306  00000-0  20877-3 0  9992
2 58464  97.5238 329.3672 0006719   9.5906 350.5456 15.19037963153682

Traccia KOYOH in tempo reale con AllMySat

Download on the App Store